"Sample Date","Sample Time","Sample Value","Units","Flow Rate","Sample Interval","Number Channels","Micron Size 0","Counts/Channel 0","Micron Size 1","Counts/Channel 1","Micron Size 2","Counts/Channel 2","Micron Size 3","Counts/Channel 3","Micron Size 4","Counts/Channel 4","Micron Size 5","Counts/Channel 5","Micron Size 6","Counts/Channel 6","Micron Size 7","Counts/Channel 7","Micron Size 8","Counts/Channel 8","Micron Size 9","Counts/Channel 9","Micron Size 10","Counts/Channel 10","Micron Size 11","Counts/Channel 11","Micron Size 12","Counts/Channel 12","Micron Size 13","Counts/Channel 13","Micron Size 14","Counts/Channel 14","Micron Size 15","Counts/Channel 15","Micron Size 16","Counts/Channel 16","Micron Size 17","Counts/Channel 17","Micron Size 18","Counts/Channel 18","Micron Size 19","Counts/Channel 19","Micron Size 20","Counts/Channel 20","Micron Size 21","Counts/Channel 21","Micron Size 22","Counts/Channel 22","Micron Size 23","Counts/Channel 23","Micron Size 24","Counts/Channel 24","Micron Size 25","Counts/Channel 25","Micron Size 26","Counts/Channel 26","Micron Size 27","Counts/Channel 27","Micron Size 28","Counts/Channel 28","Micron Size 29","Counts/Channel 29","Micron Size 30","Counts/Channel 30","Micron Size 31","Counts/Channel 31"
"04/03/08","03:00:03",30807.000,"cc",28281.746,6.00,6,0.100,27145.000,0.200,1320.000,0.300,896.000,0.500,1022.000,1.000,424.000,5.000,0
"04/03/08","03:00:09",30681.000,"cc",28306.344,6.00,6,0.100,27146.000,0.200,1305.000,0.300,800.000,0.500,1053.000,1.000,377.000,5.000,0
"04/03/08","03:00:15",31081.000,"cc",28389.305,6.00,6,0.100,27163.000,0.200,1440.000,0.300,915.000,0.500,1133.000,1.000,430.000,5.000,0
"04/03/08","03:00:21",30250.000,"cc",28282.586,6.00,6,0.100,26652.000,0.200,1300.000,0.300,848.000,0.500,1084.000,1.000,366.000,5.000,0
"04/03/08","03:00:27",30341.000,"cc",28290.094,6.00,6,0.100,26902.000,0.200,1293.000,0.300,816.000,0.500,996.000,1.000,334.000,5.000,0
"04/03/08","03:00:33",30723.000,"cc",28342.244,6.00,6,0.100,26974.000,0.200,1388.000,0.300,829.000,0.500,1104.000,1.000,428.000,5.000,0
"04/03/08","03:00:39",30372.000,"cc",28313.373,6.00,6,0.100,26688.000,0.200,1364.000,0.300,845.000,0.500,1083.000,1.000,392.000,5.000,0
"04/03/08","03:00:45",30705.000,"cc",28295.440,6.00,6,0.100,27009.000,0.200,1392.000,0.300,846.000,0.500,1038.000,1.000,420.000,5.000,0
"04/03/08","03:00:51",30704.000,"cc",28293.764,6.00,6,0.100,26943.000,0.200,1365.000,0.300,867.000,0.500,1113.000,1.000,416.000,5.000,0
"04/03/08","03:00:57",30741.000,"cc",28320.496,6.00,6,0.100,26855.000,0.200,1393.000,0.300,947.000,0.500,1125.000,1.000,421.000,5.000,0
"04/03/08","03:01:03",30469.000,"cc",28355.703,6.00,6,0.100,26831.000,0.200,1318.000,0.300,889.000,0.500,1024.000,1.000,407.000,5.000,0
"04/03/08","03:01:09",30565.000,"cc",28318.580,6.00,6,0.100,26848.000,0.200,1415.000,0.300,887.000,0.500,1031.000,1.000,384.000,5.000,0
"04/03/08","03:01:15",30721.000,"cc",28305.357,6.00,6,0.100,27069.000,0.200,1307.000,0.300,874.000,0.500,1066.000,1.000,405.000,5.000,0
"04/03/08","03:01:21",30488.000,"cc",28334.043,6.00,6,0.100,26705.000,0.200,1376.000,0.300,854.000,0.500,1125.000,1.000,428.000,5.000,0
"04/03/08","03:01:27",31006.000,"cc",28297.906,6.00,6,0.100,27124.000,0.200,1410.000,0.300,885.000,0.500,1128.000,1.000,459.000,5.000,0
"04/03/08","03:01:33",30777.000,"cc",28273.004,6.00,6,0.100,26790.000,0.200,1440.000,0.300,975.000,0.500,1157.000,1.000,415.000,5.000,0
"04/03/08","03:01:39",30557.000,"cc",28346.629,6.00,6,0.100,26844.000,0.200,1380.000,0.300,860.000,0.500,1031.000,1.000,442.000,5.000,0
"04/03/08","03:01:45",30094.000,"cc",28339.107,6.00,6,0.100,26553.000,0.200,1260.000,0.300,861.000,0.500,1030.000,1.000,390.000,5.000,0
"04/03/08","03:01:51",30532.000,"cc",28366.318,6.00,6,0.100,26795.000,0.200,1431.000,0.300,823.000,0.500,1071.000,1.000,412.000,5.000,0
"04/03/08","03:01:57",30131.000,"cc",28359.193,6.00,6,0.100,26600.000,0.200,1267.000,0.300,785.000,0.500,1061.000,1.000,418.000,5.000,0
"04/03/08","03:02:03",30288.000,"cc",28217.018,6.00,6,0.100,26739.000,0.200,1318.000,0.300,791.000,0.500,1031.000,1.000,409.000,5.000,0
"04/03/08","03:02:09",29886.000,"cc",28332.357,6.00,6,0.100,26598.000,0.200,1192.000,0.300,799.000,0.500,916.000,1.000,381.000,5.000,0
"04/03/08","03:02:15",30004.000,"cc",28405.332,6.00,6,0.100,26638.000,0.200,1260.000,0.300,762.000,0.500,990.000,1.000,354.000,5.000,0
"04/03/08","03:02:21",30063.000,"cc",28387.938,6.00,6,0.100,26707.000,0.200,1255.000,0.300,744.000,0.500,972.000,1.000,385.000,5.000,0
"04/03/08","03:02:27",30131.000,"cc",28372.273,6.00,6,0.100,26589.000,0.200,1342.000,0.300,808.000,0.500,1010.000,1.000,382.000,5.000,0
"04/03/08","03:02:33",30260.000,"cc",28283.668,6.00,6,0.100,26671.000,0.200,1318.000,0.300,820.000,0.500,1045.000,1.000,406.000,5.000,0
"04/03/08","03:02:39",30034.000,"cc",28306.531,6.00,6,0.100,26557.000,0.200,1282.000,0.300,811.000,0.500,973.000,1.000,411.000,5.000,0
"04/03/08","03:02:45",30298.000,"cc",28202.867,6.00,6,0.100,26656.000,0.200,1322.000,0.300,880.000,0.500,1044.000,1.000,396.000,5.000,0
"04/03/08","03:02:51",30160.000,"cc",28331.356,6.00,6,0.100,26377.000,0.200,1440.000,0.300,844.000,0.500,1083.000,1.000,416.000,5.000,0
"04/03/08","03:02:57",30185.000,"cc",28319.311,6.00,6,0.100,26569.000,0.200,1364.000,0.300,819.000,0.500,1035.000,1.000,398.000,5.000,0
"04/03/08","03:03:03",29813.000,"cc",28233.328,6.00,6,0.100,26378.000,0.200,1250.000,0.300,779.000,0.500,1014.000,1.000,392.000,5.000,0
"04/03/08","03:03:09",30190.000,"cc",28306.313,6.00,6,0.100,26745.000,0.200,1231.000,0.300,809.000,0.500,1037.000,1.000,368.000,5.000,0
"04/03/08","03:03:15",30366.000,"cc",28314.623,6.00,6,0.100,26960.000,0.200,1254.000,0.300,809.000,0.500,971.000,1.000,372.000,5.000,0
"04/03/08","03:03:21",30256.000,"cc",28350.660,6.00,6,0.100,26731.000,0.200,1321.000,0.300,847.000,0.500,964.000,1.000,393.000,5.000,0
"04/03/08","03:03:27",30518.000,"cc",28295.791,6.00,6,0.100,26812.000,0.200,1319.000,0.300,841.000,0.500,1096.000,1.000,450.000,5.000,0
"04/03/08","03:03:33",30599.000,"cc",28339.740,6.00,6,0.100,27051.000,0.200,1284.000,0.300,807.000,0.500,1105.000,1.000,351.000,5.000,1.000
"04/03/08","03:03:39",30856.000,"cc",28375.811,6.00,6,0.100,27197.000,0.200,1356.000,0.300,835.000,0.500,1079.000,1.000,389.000,5.000,0
"04/03/08","03:03:45",29735.000,"cc",28270.102,6.00,6,0.100,26355.000,0.200,1294.000,0.300,770.000,0.500,925.000,1.000,391.000,5.000,0
"04/03/08","03:03:51",29789.000,"cc",28374.725,6.00,6,0.100,26461.000,0.200,1249.000,0.300,703.000,0.500,986.000,1.000,390.000,5.000,0
"04/03/08","03:03:57",30247.000,"cc",28323.531,6.00,6,0.100,26625.000,0.200,1302.000,0.300,843.000,0.500,1063.000,1.000,414.000,5.000,0
"04/03/08","03:04:03",30604.000,"cc",28302.371,6.00,6,0.100,26828.000,0.200,1367.000,0.300,874.000,0.500,1089.000,1.000,446.000,5.000,0
"04/03/08","03:04:09",30735.000,"cc",28219.145,6.00,6,0.100,27152.000,0.200,1318.000,0.300,845.000,0.500,1035.000,1.000,385.000,5.000,0
"04/03/08","03:04:15",30393.000,"cc",28284.529,6.00,6,0.100,26924.000,0.200,1295.000,0.300,766.000,0.500,1017.000,1.000,391.000,5.000,0
"04/03/08","03:04:21",30294.000,"cc",28318.008,6.00,6,0.100,26794.000,0.200,1241.000,0.300,823.000,0.500,1039.000,1.000,397.000,5.000,0
"04/03/08","03:04:27",30945.000,"cc",28338.377,6.00,6,0.100,27339.000,0.200,1318.000,0.300,832.000,0.500,1054.000,1.000,402.000,5.000,0
"04/03/08","03:04:33",31070.000,"cc",28331.502,6.00,6,0.100,27474.000,0.200,1349.000,0.300,831.000,0.500,1023.000,1.000,393.000,5.000,0
"04/03/08","03:04:39",30665.000,"cc",28340.152,6.00,6,0.100,27076.000,0.200,1304.000,0.300,871.000,0.500,1034.000,1.000,380.000,5.000,0
"04/03/08","03:04:45",30720.000,"cc",28298.035,6.00,6,0.100,27064.000,0.200,1319.000,0.300,869.000,0.500,1026.000,1.000,442.000,5.000,0
"04/03/08","03:04:51",31107.000,"cc",28313.242,6.00,6,0.100,27525.000,0.200,1299.000,0.300,847.000,0.500,1071.000,1.000,365.000,5.000,0
"04/03/08","03:04:57",31171.000,"cc",28316.953,6.00,6,0.100,27353.000,0.200,1417.000,0.300,918.000,0.500,1076.000,1.000,407.000,5.000,0
"04/03/08","03:05:03",31109.000,"cc",28340.465,6.00,6,0.100,27462.000,0.200,1330.000,0.300,815.000,0.500,1074.000,1.000,428.000,5.000,0
"04/03/08","03:05:09",30748.000,"cc",28275.717,6.00,6,0.100,27049.000,0.200,1411.000,0.300,805.000,0.500,1083.000,1.000,400.000,5.000,0
"04/03/08","03:05:15",31263.000,"cc",28337.914,6.00,6,0.100,27563.000,0.200,1307.000,0.300,891.000,0.500,1105.000,1.000,397.000,5.000,0
"04/03/08","03:05:21",31065.000,"cc",28364.453,6.00,6,0.100,27382.000,0.200,1331.000,0.300,825.000,0.500,1116.000,1.000,411.000,5.000,0
"04/03/08","03:05:27",31349.000,"cc",28331.762,6.00,6,0.100,27647.000,0.200,1362.000,0.300,826.000,0.500,1111.000,1.000,403.000,5.000,0
"04/03/08","03:05:33",31349.000,"cc",28322.086,6.00,6,0.100,27469.000,0.200,1378.000,0.300,957.000,0.500,1132.000,1.000,413.000,5.000,0
"04/03/08","03:05:39",31335.000,"cc",28313.311,6.00,6,0.100,27467.000,0.200,1441.000,0.300,891.000,0.500,1099.000,1.000,437.000,5.000,0
"04/03/08","03:05:45",31121.000,"cc",28276.635,6.00,6,0.100,27410.000,0.200,1352.000,0.300,878.000,0.500,1045.000,1.000,436.000,5.000,0
"04/03/08","03:05:51",31646.000,"cc",28304.125,6.00,6,0.100,27910.000,0.200,1377.000,0.300,869.000,0.500,1078.000,1.000,412.000,5.000,0
"04/03/08","03:05:57",31090.000,"cc",28323.373,6.00,6,0.100,27393.000,0.200,1398.000,0.300,864.000,0.500,1061.000,1.000,374.000,5.000,0
"04/03/08","03:06:03",31070.000,"cc",28271.531,6.00,6,0.100,27323.000,0.200,1371.000,0.300,907.000,0.500,1091.000,1.000,378.000,5.000,0
"04/03/08","03:06:09",31993.000,"cc",28322.148,6.00,6,0.100,27943.000,0.200,1460.000,0.300,956.000,0.500,1190.000,1.000,444.000,5.000,0
"04/03/08","03:06:15",31714.000,"cc",28324.158,6.00,6,0.100,27820.000,0.200,1403.000,0.300,917.000,0.500,1147.000,1.000,427.000,5.000,0
"04/03/08","03:06:21",31891.000,"cc",28307.475,6.00,6,0.100,27855.000,0.200,1411.000,0.300,983.000,0.500,1198.000,1.000,444.000,5.000,0
"04/03/08","03:06:27",31473.000,"cc",28315.389,6.00,6,0.100,27667.000,0.200,1442.000,0.300,889.000,0.500,1081.000,1.000,394.000,5.000,0
"04/03/08","03:06:33",31152.000,"cc",28297.768,6.00,6,0.100,27352.000,0.200,1425.000,0.300,861.000,0.500,1115.000,1.000,399.000,5.000,0
"04/03/08","03:06:39",30961.000,"cc",28321.990,6.00,6,0.100,27347.000,0.200,1318.000,0.300,849.000,0.500,1046.000,1.000,401.000,5.000,0
"04/03/08","03:06:45",31459.000,"cc",28319.881,6.00,6,0.100,27646.000,0.200,1330.000,0.300,905.000,0.500,1125.000,1.000,453.000,5.000,0
"04/03/08","03:06:51",31311.000,"cc",28334.838,6.00,6,0.100,27569.000,0.200,1377.000,0.300,865.000,0.500,1062.000,1.000,438.000,5.000,0
"04/03/08","03:06:57",31365.000,"cc",28308.434,6.00,6,0.100,27527.000,0.200,1407.000,0.300,893.000,0.500,1098.000,1.000,440.000,5.000,0
"04/03/08","03:07:03",31152.000,"cc",28286.451,6.00,6,0.100,27431.000,0.200,1336.000,0.300,904.000,0.500,1090.000,1.000,391.000,5.000,0
"04/03/08","03:07:09",31566.000,"cc",28334.430,6.00,6,0.100,27656.000,0.200,1476.000,0.300,896.000,0.500,1113.000,1.000,425.000,5.000,0
"04/03/08","03:07:15",31077.000,"cc",28429.647,6.00,6,0.100,27173.000,0.200,1409.000,0.300,893.000,0.500,1137.000,1.000,465.000,5.000,0
"04/03/08","03:07:21",31168.000,"cc",28247.057,6.00,6,0.100,27266.000,0.200,1416.000,0.300,938.000,0.500,1104.000,1.000,444.000,5.000,0
"04/03/08","03:07:27",30897.000,"cc",28340.356,6.00,6,0.100,27304.000,0.200,1326.000,0.300,802.000,0.500,1073.000,1.000,392.000,5.000,0
"04/03/08","03:07:33",31327.000,"cc",28294.432,6.00,6,0.100,27720.000,0.200,1275.000,0.300,863.000,0.500,1058.000,1.000,411.000,5.000,0
"04/03/08","03:07:39",31395.000,"cc",28297.705,6.00,6,0.100,27570.000,0.200,1363.000,0.300,862.000,0.500,1138.000,1.000,462.000,5.000,0
"04/03/08","03:07:45",31052.000,"cc",28277.088,6.00,6,0.100,27467.000,0.200,1367.000,0.300,796.000,0.500,1041.000,1.000,381.000,5.000,0
"04/03/08","03:07:51",30887.000,"cc",28258.740,6.00,6,0.100,27390.000,0.200,1291.000,0.300,853.000,0.500,968.000,1.000,385.000,5.000,0
"04/03/08","03:07:57",31038.000,"cc",28331.490,6.00,6,0.100,27507.000,0.200,1299.000,0.300,769.000,0.500,1074.000,1.000,389.000,5.000,0
"04/03/08","03:08:03",31234.000,"cc",28378.045,6.00,6,0.100,27614.000,0.200,1386.000,0.300,787.000,0.500,1051.000,1.000,396.000,5.000,0
"04/03/08","03:08:09",30984.000,"cc",28373.565,6.00,6,0.100,27277.000,0.200,1325.000,0.300,834.000,0.500,1094.000,1.000,454.000,5.000,0
"04/03/08","03:08:15",30989.000,"cc",28255.211,6.00,6,0.100,27229.000,0.200,1378.000,0.300,853.000,0.500,1101.000,1.000,428.000,5.000,0
"04/03/08","03:08:21",31075.000,"cc",28267.930,6.00,6,0.100,27409.000,0.200,1353.000,0.300,822.000,0.500,1072.000,1.000,419.000,5.000,0
"04/03/08","03:08:27",31233.000,"cc",28299.637,6.00,6,0.100,27542.000,0.200,1337.000,0.300,887.000,0.500,1049.000,1.000,418.000,5.000,0
"04/03/08","03:08:33",30810.000,"cc",28312.982,6.00,6,0.100,27103.000,0.200,1358.000,0.300,903.000,0.500,1023.000,1.000,423.000,5.000,0
"04/03/08","03:08:39",30741.000,"cc",28329.908,6.00,6,0.100,26955.000,0.200,1374.000,0.300,845.000,0.500,1139.000,1.000,428.000,5.000,0
"04/03/08","03:08:45",30899.000,"cc",28319.232,6.00,6,0.100,27209.000,0.200,1341.000,0.300,861.000,0.500,1092.000,1.000,396.000,5.000,0
"04/03/08","03:08:51",30826.000,"cc",28354.229,6.00,6,0.100,27087.000,0.200,1357.000,0.300,842.000,0.500,1130.000,1.000,410.000,5.000,0
"04/03/08","03:08:57",30791.000,"cc",28294.969,6.00,6,0.100,27093.000,0.200,1396.000,0.300,796.000,0.500,1072.000,1.000,434.000,5.000,0
"04/03/08","03:09:03",30544.000,"cc",28294.004,6.00,6,0.100,27011.000,0.200,1303.000,0.300,849.000,0.500,999.000,1.000,382.000,5.000,0
"04/03/08","03:09:09",30620.000,"cc",28276.035,6.00,6,0.100,26971.000,0.200,1283.000,0.300,906.000,0.500,1052.000,1.000,408.000,5.000,0
"04/03/08","03:09:15",31061.000,"cc",28374.373,6.00,6,0.100,27441.000,0.200,1286.000,0.300,883.000,0.500,1068.000,1.000,383.000,5.000,0
"04/03/08","03:09:21",31154.000,"cc",28285.316,6.00,6,0.100,27296.000,0.200,1401.000,0.300,911.000,0.500,1131.000,1.000,415.000,5.000,0
"04/03/08","03:09:27",31175.000,"cc",28282.373,6.00,6,0.100,27307.000,0.200,1373.000,0.300,888.000,0.500,1175.000,1.000,432.000,5.000,0
"04/03/08","03:09:33",30941.000,"cc",28299.441,6.00,6,0.100,27302.000,0.200,1324.000,0.300,836.000,0.500,1074.000,1.000,405.000,5.000,0
"04/03/08","03:09:39",31450.000,"cc",28456.195,6.00,6,0.100,27655.000,0.200,1374.000,0.300,911.000,0.500,1073.000,1.000,437.000,5.000,0
"04/03/08","03:09:45",30917.000,"cc",28321.393,6.00,6,0.100,27190.000,0.200,1331.000,0.300,863.000,0.500,1068.000,1.000,465.000,5.000,0
"04/03/08","03:09:51",30781.000,"cc",28303.486,6.00,6,0.100,26862.000,0.200,1382.000,0.300,930.000,0.500,1174.000,1.000,433.000,5.000,0
"04/03/08","03:09:57",31112.000,"cc",28286.941,6.00,6,0.100,27346.000,0.200,1322.000,0.300,916.000,0.500,1117.000,1.000,411.000,5.000,0
"04/03/08","03:10:03",30198.000,"cc",28249.668,6.00,6,0.100,26769.000,0.200,1251.000,0.300,831.000,0.500,981.000,1.000,366.000,5.000,0
"04/03/08","03:10:09",30674.000,"cc",28386.924,6.00,6,0.100,27151.000,0.200,1317.000,0.300,814.000,0.500,995.000,1.000,397.000,5.000,0
"04/03/08","03:10:15",30227.000,"cc",28354.854,6.00,6,0.100,26814.000,0.200,1220.000,0.300,799.000,0.500,1000.000,1.000,394.000,5.000,0
"04/03/08","03:10:21",30644.000,"cc",28242.225,6.00,6,0.100,27052.000,0.200,1250.000,0.300,870.000,0.500,1089.000,1.000,383.000,5.000,0
"04/03/08","03:10:27",30842.000,"cc",28329.000,6.00,6,0.100,27316.000,0.200,1292.000,0.300,792.000,0.500,1022.000,1.000,420.000,5.000,0
"04/03/08","03:10:33",30810.000,"cc",28322.246,6.00,6,0.100,27122.000,0.200,1384.000,0.300,815.000,0.500,1095.000,1.000,394.000,5.000,0
"04/03/08","03:10:39",30831.000,"cc",28320.785,6.00,6,0.100,27251.000,0.200,1273.000,0.300,824.000,0.500,1078.000,1.000,405.000,5.000,0
"04/03/08","03:10:45",30768.000,"cc",28295.291,6.00,6,0.100,27207.000,0.200,1267.000,0.300,791.000,0.500,1063.000,1.000,440.000,5.000,0
"04/03/08","03:10:51",30920.000,"cc",28341.590,6.00,6,0.100,27294.000,0.200,1273.000,0.300,866.000,0.500,1050.000,1.000,437.000,5.000,0
"04/03/08","03:10:57",30805.000,"cc",28348.004,6.00,6,0.100,27202.000,0.200,1324.000,0.300,837.000,0.500,1034.000,1.000,408.000,5.000,0
"04/03/08","03:11:03",31099.000,"cc",28348.856,6.00,6,0.100,27388.000,0.200,1349.000,0.300,815.000,0.500,1113.000,1.000,434.000,5.000,0
"04/03/08","03:11:09",30687.000,"cc",28313.584,6.00,6,0.100,27177.000,0.200,1280.000,0.300,838.000,0.500,1005.000,1.000,387.000,5.000,0
"04/03/08","03:11:15",30806.000,"cc",28216.109,6.00,6,0.100,27246.000,0.200,1256.000,0.300,865.000,0.500,1074.000,1.000,365.000,5.000,0
"04/03/08","03:11:21",30512.000,"cc",28286.231,6.00,6,0.100,26907.000,0.200,1330.000,0.300,834.000,0.500,1057.000,1.000,384.000,5.000,0
"04/03/08","03:11:27",31164.000,"cc",28387.236,6.00,6,0.100,27465.000,0.200,1364.000,0.300,859.000,0.500,1066.000,1.000,410.000,5.000,0
"04/03/08","03:11:33",31183.000,"cc",28334.920,6.00,6,0.100,27256.000,0.200,1367.000,0.300,928.000,0.500,1152.000,1.000,480.000,5.000,0
"04/03/08","03:11:39",30864.000,"cc",28366.074,6.00,6,0.100,27216.000,0.200,1297.000,0.300,833.000,0.500,1111.000,1.000,407.000,5.000,0
"04/03/08","03:11:45",30679.000,"cc",28285.586,6.00,6,0.100,27056.000,0.200,1208.000,0.300,882.000,0.500,1095.000,1.000,438.000,5.000,0
"04/03/08","03:11:51",30938.000,"cc",28356.326,6.00,6,0.100,27385.000,0.200,1260.000,0.300,861.000,0.500,1029.000,1.000,403.000,5.000,0
"04/03/08","03:11:57",30707.000,"cc",28201.326,6.00,6,0.100,27211.000,0.200,1236.000,0.300,816.000,0.500,1047.000,1.000,397.000,5.000,0
"04/03/08","03:12:03",30274.000,"cc",28304.988,6.00,6,0.100,26709.000,0.200,1334.000,0.300,842.000,0.500,1021.000,1.000,368.000,5.000,0
"04/03/08","03:12:09",30663.000,"cc",28365.941,6.00,6,0.100,27215.000,0.200,1257.000,0.300,810.000,0.500,1028.000,1.000,353.000,5.000,0
"04/03/08","03:12:15",30682.000,"cc",28337.598,6.00,6,0.100,27130.000,0.200,1294.000,0.300,826.000,0.500,1033.000,1.000,399.000,5.000,0
"04/03/08","03:12:21",31128.000,"cc",28320.820,6.00,6,0.100,27415.000,0.200,1346.000,0.300,879.000,0.500,1111.000,1.000,377.000,5.000,0
"04/03/08","03:12:27",30304.000,"cc",28332.856,6.00,6,0.100,26700.000,0.200,1330.000,0.300,776.000,0.500,1067.000,1.000,431.000,5.000,0
"04/03/08","03:12:33",30720.000,"cc",28296.441,6.00,6,0.100,27178.000,0.200,1305.000,0.300,857.000,0.500,1037.000,1.000,343.000,5.000,0
"04/03/08","03:12:39",30642.000,"cc",28349.244,6.00,6,0.100,27018.000,0.200,1241.000,0.300,879.000,0.500,1099.000,1.000,405.000,5.000,0
"04/03/08","03:12:45",30766.000,"cc",28260.828,6.00,6,0.100,27159.000,0.200,1301.000,0.300,830.000,0.500,1078.000,1.000,398.000,5.000,0
"04/03/08","03:12:51",30909.000,"cc",28207.303,6.00,6,0.100,27311.000,0.200,1298.000,0.300,887.000,0.500,1047.000,1.000,366.000,5.000,0
"04/03/08","03:12:57",30897.000,"cc",28269.090,6.00,6,0.100,27186.000,0.200,1305.000,0.300,877.000,0.500,1127.000,1.000,402.000,5.000,0
"04/03/08","03:13:03",31307.000,"cc",28330.563,6.00,6,0.100,27397.000,0.200,1443.000,0.300,880.000,0.500,1141.000,1.000,446.000,5.000,0
"04/03/08","03:13:09",31063.000,"cc",28397.047,6.00,6,0.100,27256.000,0.200,1354.000,0.300,913.000,0.500,1108.000,1.000,432.000,5.000,0
"04/03/08","03:13:15",30584.000,"cc",28390.318,6.00,6,0.100,27031.000,0.200,1310.000,0.300,815.000,0.500,1018.000,1.000,410.000,5.000,0
"04/03/08","03:13:21",30903.000,"cc",28350.018,6.00,6,0.100,27285.000,0.200,1305.000,0.300,838.000,0.500,1059.000,1.000,416.000,5.000,0
"04/03/08","03:13:27",30767.000,"cc",28268.891,6.00,6,0.100,27152.000,0.200,1350.000,0.300,849.000,0.500,1020.000,1.000,396.000,5.000,0
"04/03/08","03:13:33",30757.000,"cc",28273.777,6.00,6,0.100,27076.000,0.200,1346.000,0.300,893.000,0.500,1072.000,1.000,370.000,5.000,0
"04/03/08","03:13:39",30808.000,"cc",28297.940,6.00,6,0.100,27215.000,0.200,1327.000,0.300,797.000,0.500,1052.000,1.000,417.000,5.000,0
"04/03/08","03:13:45",30736.000,"cc",28282.830,6.00,6,0.100,27103.000,0.200,1285.000,0.300,907.000,0.500,1048.000,1.000,393.000,5.000,0
"04/03/08","03:13:51",30721.000,"cc",28327.305,6.00,6,0.100,27071.000,0.200,1380.000,0.300,840.000,0.500,1028.000,1.000,402.000,5.000,0
"04/03/08","03:13:57",30483.000,"cc",28344.002,6.00,6,0.100,27002.000,0.200,1285.000,0.300,847.000,0.500,983.000,1.000,366.000,5.000,0
"04/03/08","03:14:03",30521.000,"cc",28352.967,6.00,6,0.100,27053.000,0.200,1287.000,0.300,779.000,0.500,1035.000,1.000,367.000,5.000,0
"04/03/08","03:14:09",30966.000,"cc",28267.574,6.00,6,0.100,27124.000,0.200,1390.000,0.300,871.000,0.500,1118.000,1.000,463.000,5.000,0
"04/03/08","03:14:15",30752.000,"cc",28317.988,6.00,6,0.100,27174.000,0.200,1340.000,0.300,793.000,0.500,1065.000,1.000,380.000,5.000,0
"04/03/08","03:14:21",30598.000,"cc",28347.377,6.00,6,0.100,26969.000,0.200,1236.000,0.300,864.000,0.500,1104.000,1.000,425.000,5.000,0
"04/03/08","03:14:27",30288.000,"cc",28271.022,6.00,6,0.100,26836.000,0.200,1273.000,0.300,789.000,0.500,1018.000,1.000,372.000,5.000,0
"04/03/08","03:14:33",30423.000,"cc",28315.658,6.00,6,0.100,26929.000,0.200,1218.000,0.300,830.000,0.500,1069.000,1.000,377.000,5.000,0
"04/03/08","03:14:39",30688.000,"cc",28286.016,6.00,6,0.100,27109.000,0.200,1228.000,0.300,870.000,0.500,1088.000,1.000,393.000,5.000,0
"04/03/08","03:14:45",30623.000,"cc",28341.051,6.00,6,0.100,26911.000,0.200,1373.000,0.300,823.000,0.500,1072.000,1.000,444.000,5.000,0
"04/03/08","03:14:51",30754.000,"cc",28337.799,6.00,6,0.100,27022.000,0.200,1353.000,0.300,883.000,0.500,1103.000,1.000,393.000,5.000,0
"04/03/08","03:14:57",30553.000,"cc",28307.926,6.00,6,0.100,27023.000,0.200,1313.000,0.300,830.000,0.500,1019.000,1.000,368.000,5.000,0
"04/03/08","03:15:03",30404.000,"cc",28276.840,6.00,6,0.100,26780.000,0.200,1314.000,0.300,847.000,0.500,1050.000,1.000,413.000,5.000,0
"04/03/08","03:15:09",30798.000,"cc",28330.447,6.00,6,0.100,27017.000,0.200,1370.000,0.300,854.000,0.500,1151.000,1.000,406.000,5.000,0
"04/03/08","03:15:15",30593.000,"cc",28368.863,6.00,6,0.100,26896.000,0.200,1327.000,0.300,865.000,0.500,1066.000,1.000,439.000,5.000,0
"04/03/08","03:15:21",30350.000,"cc",28356.856,6.00,6,0.100,26801.000,0.200,1297.000,0.300,808.000,0.500,1051.000,1.000,392.000,5.000,1.000
"04/03/08","03:15:27",30518.000,"cc",28272.623,6.00,6,0.100,26902.000,0.200,1323.000,0.300,856.000,0.500,1033.000,1.000,404.000,5.000,0
"04/03/08","03:15:33",30244.000,"cc",28341.856,6.00,6,0.100,26626.000,0.200,1289.000,0.300,810.000,0.500,1104.000,1.000,415.000,5.000,0
"04/03/08","03:15:39",30519.000,"cc",28292.709,6.00,6,0.100,26892.000,0.200,1299.000,0.300,798.000,0.500,1115.000,1.000,415.000,5.000,0
"04/03/08","03:15:45",30120.000,"cc",28391.914,6.00,6,0.100,26537.000,0.200,1343.000,0.300,819.000,0.500,1008.000,1.000,413.000,5.000,0
"04/03/08","03:15:51",30108.000,"cc",28236.109,6.00,6,0.100,26548.000,0.200,1313.000,0.300,848.000,0.500,1017.000,1.000,382.000,5.000,0
"04/03/08","03:15:57",30535.000,"cc",28289.742,6.00,6,0.100,26841.000,0.200,1343.000,0.300,845.000,0.500,1101.000,1.000,405.000,5.000,0
"04/03/08","03:16:03",30351.000,"cc",28396.596,6.00,6,0.100,26610.000,0.200,1373.000,0.300,889.000,0.500,1065.000,1.000,414.000,5.000,0
"04/03/08","03:16:09",30996.000,"cc",28289.361,6.00,6,0.100,27004.000,0.200,1377.000,0.300,961.000,0.500,1187.000,1.000,467.000,5.000,0
"04/03/08","03:16:15",29963.000,"cc",28263.734,6.00,6,0.100,26396.000,0.200,1284.000,0.300,878.000,0.500,1022.000,1.000,383.000,5.000,0
"04/03/08","03:16:21",29372.000,"cc",28341.660,6.00,6,0.100,26046.000,0.200,1217.000,0.300,792.000,0.500,977.000,1.000,340.000,5.000,0
"04/03/08","03:16:27",29993.000,"cc",28338.082,6.00,6,0.100,26375.000,0.200,1269.000,0.300,840.000,0.500,1092.000,1.000,417.000,5.000,0
"04/03/08","03:16:33",29975.000,"cc",28336.244,6.00,6,0.100,26454.000,0.200,1311.000,0.300,799.000,0.500,1028.000,1.000,383.000,5.000,0